Tracking 23764 objects as of 17-Oct-2021
HD Live streaming from Space Station
objects crossing your sky now

USA 310

Track USA 310 now!
10-day predictions
USA 310 is classified as:


NORAD ID: 46918
Int'l Code: 2020-083A
Perigee: 11,081.6 km
Apogee: 11,105.0 km
Inclination: 58.5 °
Period: 382.8 minutes
Semi major axis: 17464 km
RCS: Unknown
Launch date: November 13, 2020
Source: United States (US)
Launch site: AIR FORCE EASTERN TEST RANGE (AFETR)
aabbcc
Your satellite tracking list
Your tracking list is empty




NASA's NSSDC Master Catalog

Two Line Element Set (TLE):
1 46918U 20083A   21038.63883881 0.00000000  00000-0  00000-0 0    03
2 46918  58.5275 281.1331 0006695 276.4323  83.5677  3.76163394    02
Source of the keplerian elements: McCants